Vorticity
8 10 8 5 10 7 8 8 11 13 13 12 15 14 9 6 6 8 8 10 8 7
10 6 6 11 7 9 8 11 11 14 16 14 12 7 5 5 6 9 11 9 9 10
5 6 12 9 10 7 11 12 17 15 9 6 4 5 7 8 12 16 11 12 13 14
8 12 8 9 6 9 14 16 12 6 4 5 8 13 27 37 38 36 32 35 28 19
9 5 10 5 9 15 13 11 4 5 8 16 44 40 21 15 15 16 18 18 13 17
5 10 6 8 15 13 8 4 7 9 36 39 13 11 10 8 12 14 12 13 16 15
10 6 9 13 12 6 5 8 11 47 15 10 9 10 8 8 10 11 14 19 17 18
6 11 11 11 6 5 8 13 46 8 12 6 5 6 4 4 6 5 10 14 11 12
11 11 11 6 5 8 12 41 7 10 7 8 3 3 5 4 3 2 3 4 5 3
11 11 6 5 8 12 37 10 9 6 4 3 5 -0 4 3 3 2 3 2 3 4
10 6 6 9 13 35 13 6 10 10 2 6 7 3 5 4 6 4 6 3 5 9
6 6 10 15 32 13 6 8 10 6 8 7 9 8 7 7 4 3 5 9 15 16
6 11 16 29 13 5 8 10 10 7 11 8 8 7 5 3 4 11 15 15 15 14
11 16 28 13 6 6 6 11 10 11 7 8 7 4 4 7 13 13 14 14 13 13
Height
5667 5662 5657 5652 5646 5640 5634 5627 5621 5613 5605 5598 5592 5588 5583 5578 5573 5569 5564 5560 5555 5551
5655 5650 5644 5638 5632 5625 5619 5613 5607 5599 5591 5585 5579 5574 5569 5563 5558 5553 5547 5542 5538 5534
5642 5636 5630 5624 5619 5612 5606 5599 5592 5585 5578 5572 5566 5560 5554 5547 5540 5535 5529 5525 5521 5517
5628 5623 5618 5612 5605 5598 5592 5585 5579 5572 5565 5558 5551 5543 5536 5529 5523 5517 5512 5507 5504 5501
5616 5611 5605 5599 5592 5586 5579 5573 5566 5558 5551 5543 5536 5528 5523 5517 5511 5505 5500 5495 5491 5487
5604 5599 5593 5587 5579 5573 5566 5560 5552 5544 5536 5530 5525 5520 5513 5507 5502 5496 5490 5485 5480 5476
5593 5587 5581 5574 5567 5561 5553 5546 5538 5531 5527 5520 5516 5511 5504 5498 5493 5487 5481 5475 5469 5464
5582 5575 5569 5563 5556 5549 5541 5533 5526 5522 5518 5511 5508 5502 5495 5490 5484 5478 5471 5465 5459 5452
5569 5564 5558 5552 5545 5536 5529 5522 5517 5512 5508 5502 5498 5492 5486 5480 5474 5468 5461 5454 5448 5441
5558 5552 5546 5540 5532 5525 5518 5513 5508 5503 5498 5492 5487 5482 5475 5470 5463 5456 5448 5442 5435 5428
5547 5541 5534 5527 5520 5514 5509 5504 5499 5494 5488 5482 5476 5471 5463 5457 5450 5443 5434 5426 5418 5411
5534 5529 5523 5516 5509 5505 5500 5495 5490 5484 5478 5472 5465 5459 5451 5444 5437 5429 5420 5409 5400 5391
5523 5517 5511 5505 5500 5496 5491 5486 5480 5474 5467 5460 5454 5446 5438 5430 5421 5413 5403 5393 5383 5373
5512 5506 5500 5496 5492 5487 5481 5476 5470 5464 5457 5449 5442 5433 5424 5415 5405 5395 5386 5376 5367 5357